DECAYED

NOAA 16 DEB, 41254 (Decayed)

Orbit data source: Space-Track

NOAA 16 DEB, 41254 was space debris in SSO originally from a launch on Thu, 21 Sep 2000 UTC launched from the Air Force Western Test Range (AFWTR). Debris objects in space refer to the collection of defunct objects orbiting the Earth. Examples of debris include non-operational satellites, rocket bodies, and fragments generated from explosions, collisions, or faulty payload assembly.

Not visible in the next 10 days
Identifier
41254, 2000-055FE
Orbit
Decayed
Country
Flag of USUS
Related business
Manufacturer
Unknown
Mission
Decayed spacecraft
Bus & Motor
Unknown
Mass
Unknown
Launch date (UTC)
2000-09-21 (26 years ago)
Launch vehicle
Unknown
Launch site
Air Force Western Test Range (AFWTR)
Object type
Payload
Rocket body
Debris
Shape & HBR
Unknown shape, 0.1 m
Radar Cross Section
Small (<0.1 m²)

Expand to show TLE details & history
Last TLE update: 1 year ago

TLE from 1 year ago
0 NOAA 16 DEB
1 41254U 00055FE  25070.66165486  .00156128  00000-0  13227-1 0  9991
2 41254  99.0405 321.7274 0016154  46.8343 313.4222 14.97062355478903
Epoch: 2025-03-11T15:52Z
TLE epoch observation values (Epoch: 2025-03-11T15:52:46.979Z)
Latitude
-0.00002°
Longitude
-86.02974°
Altitude
571.273 km
Speed
7.579 km/s
True Right ascension
21h 26m 54s
True Declination
0° 00' 00"
Sunlit
Object was in daylight at epoch
Visualization orbit readout
Latitude
Unknown
Longitude
Unknown
Altitude
Unknown
Speed
Unknown
Apparent Right ascension
Unknown
Apparent Declination
Unknown
Sunlit
N/A
Visualization observer readout
Local Sidereal Time
03:07:37
Azimuth
Unknown
Elevation
Unknown
Doppler factor
Unknown
Orbital elements
Apogee altitude
584.281 km
Perigee altitude
561.823 km
Semi-major axis
6,951.189 km
Eccentricity
0.00162
Inclination
99.0405°
RAAN
321.7274°
Arg. of periapsis
46.8343°
True anomaly
313.28757°
Mean anomaly
313.4222°
Eccentric anomaly
313.3549°
Mean motion
3.74502 °/min
Orbital period
96.13 mins
BSTAR
0.013227
Loading maneuver chart data...
Computing Atmospheric mass density...
Loading historical data...
Loading historical data...
Loading historical data...
Loading historical data...
Loading historical data...
Loading historical data...
Loading historical data...

Documentation

Showing up to 5 results
|